Tracking 32932 objects as of 14-Jan-2026
HD Live streaming from Space Station
objects crossing your sky now

BEIDOU 3M8

Track BEIDOU 3M8 now!
BEIDOU 3M8 is classified as:


NORAD ID: 43246
Int'l Code: 2018-029B
Perigee: 21,522.2 km
Apogee: 21,548.5 km
Inclination: 54.3 °
Period: 773.2 minutes
Semi major axis: 27906 km
RCS: Unknown
Launch date: March 29, 2018
Source: People's Republic of China (PRC)
Launch site: Xichang Space Center, China (XSC)
Your satellite tracking list
Your tracking list is empty




NASA's NSSDC Master Catalog

Two Line Element Set (TLE):
1 43246U 18029B   26012.16547057 -.00000097  00000-0  00000-0 0  9992
2 43246  54.3339 305.4336 0004713  10.0755 349.9488  1.86229117 52970
Source of the keplerian elements: AFSPC